This is the latest recevied weather packets stored in our database for station/object IZ7EXI-13. If no packets are shown the sender has not sent any weather packets the latest 10 day(s).
| Time | Temp. | Humidity | Pressure | Rain* | Wind** | Luminosity | Snow |
|---|---|---|---|---|---|---|---|
| 1788437301 | 35.56° C | 36% | 1017.8 hPa | - | - | - | - |
| 1788437269 | 35.56° C | 36% | 1017.8 hPa | - | - | - | - |
| 1788436369 | 35.56° C | 34% | 1017.7 hPa | - | - | - | - |
| 1788435469 | 35.56° C | 34% | 1017.8 hPa | - | - | - | - |
| 1788434604 | 35° C | 35% | 1017.9 hPa | - | - | - | - |
| 1788434568 | 35° C | 35% | 1017.9 hPa | - | - | - | - |
| 1788433699 | 34.44° C | 36% | 1018.1 hPa | - | - | - | - |
| 1788433668 | 34.44° C | 36% | 1018.1 hPa | - | - | - | - |
| 1788432800 | 35° C | 36% | 1018.2 hPa | - | - | - | - |
| 1788432768 | 35° C | 36% | 1018.2 hPa | - | - | - | - |
| 1788431868 | 33.89° C | 35% | 1018.3 hPa | - | - | - | - |
| 1788430968 | 34.44° C | 34% | 1018.4 hPa | - | - | - | - |
| 1788430099 | 33.89° C | 36% | 1018.5 hPa | - | - | - | - |
| 1788430067 | 33.89° C | 36% | 1018.5 hPa | - | - | - | - |
| 1788429197 | 32.78° C | 37% | 1018.8 hPa | - | - | - | - |
| 1788429167 | 32.78° C | 37% | 1018.8 hPa | - | - | - | - |
| 1788428267 | 32.78° C | 37% | 1018.8 hPa | - | - | - | - |
| 1788427402 | 32.22° C | 41% | 1018.9 hPa | - | - | - | - |
| 1788427367 | 32.22° C | 41% | 1018.9 hPa | - | - | - | - |
| 1788426466 | 32.22° C | 40% | 1018.9 hPa | - | - | - | - |
| 1788425590 | 31.67° C | 41% | 1018.9 hPa | - | - | - | - |
| 1788425566 | 31.67° C | 41% | 1018.9 hPa | - | - | - | - |
| 1788424690 | 31.11° C | 45% | 1018.8 hPa | - | - | - | - |
| 1788424666 | 31.11° C | 45% | 1018.8 hPa | - | - | - | - |
| 1788423798 | 30.56° C | 47% | 1018.9 hPa | - | - | - | - |
* Rain since midnight (hover to see other rain measurements)
** Current wind speed in m/s (hover to see current wind gust speed)